www.pogodaiklimat.ru

Погода и климат >> Архив погоды >> Таиланд >> Нан Агромет


ПОГОДА в Нан Агромете

  • Прогноз погоды в Нан Агромете
  • Монитор погоды в Нан Агромете

АРХИВ ПОГОДЫ в Нан Агромете

Время (UTC), дата Ветер
(напр.,м/с)
 
Видим.   Явления Облачность Т
(С)
Тd
(С)
f
(%)
Тe
(С)
Тes
(С)
Комфортность P
(гПа)
Po
(гПа)
Тmin
(С)
Tmax
(С)
R
(мм)
R24
(мм)
S
(см)
21 16.01 штиль 0 5000 м дымка ясно +20.5 +19.7 95 +24 +24 комфорт 1013.5 982.8
00 17.01 штиль 0 10 км 3/0
[Cs]
+18.5 +17.7 95 +19 +19 1014.9 984.0 +18.3
03 17.01 штиль 0 12 км ясно +24.0 +18.1 70 +28 +40 душно 1017.0 986.6
06 17.01 штиль 0 12 км 3/3 600 м
[Cu med, cong]
+29.0 +17.1 49 +33 +45 очень
душно
1013.5 983.7
09 17.01 штиль 0 12 км 3/3 600 м
[Cu med, cong]
+30.7 +16.5 42 +34 +37 очень
душно
1011.2 981.7
12 17.01 штиль 0 10 км 6/3 600 м
[Cu med, cong Ac lent Cs]
+26.0 +18.6 64 +31 +31 очень
душно
1012.1 982.0 +31.3
15 17.01 штиль 0 8000 м дымка ясно +22.0 +20.5 91 +28 +28 душно 1014.3 983.8
18 17.01 штиль 0 5000 м дымка ясно +20.6 +18.8 89 +24 +24 комфорт 1014.8 984.1
21 17.01 штиль 0 5000 м дымка ясно +20.6 +18.8 89 +24 +24 комфорт 1014.8 984.1
00 18.01 штиль 0 8000 м дымка 6/3 600 м
[Sc Ac und Cs]
+18.5 +17.7 95 +19 +19 1016.1 985.1 +18.3
03 18.01 штиль 0 12 км 4/3 600 м
[Cu hum Ac und]
+24.0 +18.5 71 +28 +36 душно 1017.9 987.5
06 18.01 Ю 4 12 км 3/3 600 м
[Cu hum]
+28.5 +17.4 51 +33 +39 очень
душно
1014.4 984.5
09 18.01 штиль 0 12 км 3/3 600 м
[Cu hum]
+30.5 +16.5 43 +34 +37 очень
душно
1011.4 981.8
12 18.01 штиль 0 12 км ясно +22.8 +18.3 76 +28 +28 душно 1012.9 982.5 +30.6
15 18.01 штиль 0 8000 м дымка ясно +18.3 +16.6 90 +19 +19 1015.5 984.6
18 18.01 штиль 0 5000 м дымка ясно +17.0 +15.6 91 +17 +17 1015.6 984.5
21 18.01 штиль 0 4000 м дымка ясно +16.0 +15.1 94 +16 +16 1014.9 983.8
00 19.01 штиль 0 4000 м дымка ясно +15.6 +15.1 97 +15 +15 1015.9 984.7 +15.4
03 19.01 СВ 3 10 км ясно +23.1 +17.8 72 +29 +36 очень
душно
1017.1 986.6
06 19.01 штиль 0 12 км 3/3 600 м
[Cu hum]
+28.6 +16.4 48 +32 +44 душно 1013.3 983.4
09 19.01 штиль 0 12 км 3/3 600 м
[Cu hum]
+30.2 +16.3 43 +33 +37 душно 1010.2 980.6
12 19.01 штиль 0 12 км 3/3 600 м
[Cu hum Ac trans]
+23.6 +18.9 75 +28 +28 душно 1011.9 981.6 +30.6
15 19.01 штиль 0 10 км 3/3 600 м
[Cu hum Ac und]
+19.8 +17.8 88 +22 +22 комфорт 1014.4 983.7
18 19.01 штиль 0 8000 м дымка ясно +17.7 +16.2 91 +18 +18 1014.9 983.9
21 19.01 штиль 0 5000 м дымка ясно +16.4 +15.4 94 +16 +16 1014.3 983.1
00 20.01 штиль 0 4000 м дымка 3/0
[Ac lent Cs]
+16.0 +15.1 94 +16 +16 1015.8 984.6 +15.6
03 20.01 В 3 12 км ясно +23.3 +17.5 70 +29 +36 душно 1016.6 986.2
06 20.01 ЮВ 6 12 км 3/3 600 м
[Cu hum]
+30.5 +18.2 48 +35 +39 очень
душно
1012.6 982.9
09 20.01 штиль 0 12 км 3/3 600 м
[Cu hum]
+32.0 +15.0 36 +34 +37 душно 1009.5 980.1
12 20.01 штиль 0 12 км ясно +23.1 +16.6 67 +28 +28 душно 1011.1 980.8 +32.2
15 20.01 штиль 0 10 км ясно +17.7 +15.7 88 +18 +18 1013.8 982.8
18 20.01 штиль 0 6000 м дымка ясно +17.0 +16.1 94 +17 +17 1014.8 983.7
21 20.01 штиль 0 4000 м дымка ясно +15.8 +14.7 93 +16 +16 1014.4 983.2
00 21.01 штиль 0 5000 м дымка 6/3 600 м
[Cu hum Ac und Cs]
+15.6 +14.7 94 +15 +15 1016.6 985.3 +15.0
03 21.01 штиль 0 12 км 3/0
[Cs]
+21.9 +15.0 65 +25 +37 комфорт 1017.9 987.2
06 21.01 штиль 0 12 км ясно +30.4 +16.3 43 +34 +51 опасность
солнечного
удара
1013.2 983.6
09 21.01 штиль 0 12 км 1/1 600 м
[Cu hum]
+31.2 +17.4 44 +35 +39 очень
душно
1011.1 981.6
12 21.01 штиль 0 10 км 3/3 600 м
[Cu med, cong]
+26.5 +19.6 66 +32 +32 очень
душно
1012.6 982.6 +31.5
15 21.01 штиль 0 8000 м дымка ясно +21.8 +18.9 84 +27 +27 душно 1014.7 984.2
18 21.01 штиль 0 5000 м дымка ясно +18.8 +17.5 92 +20 +20 1015.2 984.3
21 21.01 штиль 0 5000 м дымка ясно +17.0 +15.6 91 +17 +17 1013.8 982.8
00 22.01 штиль 0 10 км 3/3 600 м
[Cu med, cong]
+16.2 +15.3 94 +16 +16 1016.9 985.7 +16.0
03 22.01 штиль 0 12 км ясно +24.0 +15.4 59 +27 +39 жарко 1018.3 987.9
06 22.01 штиль 0 12 км 5/3 600 м
[Cu med, cong Ac und Cs]
+29.0 +19.0 55 +34 +45 очень
душно
1015.4 985.5
09 22.01 штиль 0 12 км ясно +30.0 +18.7 51 +35 +40 очень
душно
1012.7 983.0
12 22.01 штиль 0 12 км ясно +25.2 +20.3 74 +31 +31 очень
душно
1013.7 983.5 +30.5
15 22.01 штиль 0 8000 м дымка ясно +20.2 +18.3 89 +23 +23 комфорт 1015.7 985.0
18 22.01 штиль 0 5000 м дымка ясно +18.4 +16.9 91 +19 +19 1016.3 985.3
21 22.01 штиль 0 5000 м дымка ясно +17.0 +16.1 94 +17 +17 1015.2 984.1
00 23.01 штиль 0 10 км 4/3 600 м
[Cu med, cong Cs]
+16.6 +15.6 94 +16 +17 1017.1 985.9 +16.5
03 23.01 штиль 0 12 км ясно +23.0 +16.8 68 +28 +40 душно 1018.3 987.8
06 23.01 штиль 0 12 км ясно +28.8 +18.2 53 +34 +52 опасность
солнечного
удара
1014.6 984.7
09 23.01 штиль 0 12 км ясно +30.0 +18.7 51 +35 +40 очень
душно
1011.8 982.1
12 23.01 штиль 0 10 км ясно +25.0 +20.4 76 +31 +31 очень
душно
1012.8 982.6 +30.5
15 23.01 штиль 0 8000 м дымка ясно +20.3 +19.0 92 +24 +24 комфорт 1014.8 984.1
18 23.01 штиль 0 5000 м дымка ясно +18.6 +17.3 92 +19 +19 1015.2 984.3

 

Местоположение метеостанции Нан Агромет (Таиланд): широта 18.87 долгота 100.75 высота над уровнем моря 264 м.

В архиве по умолчанию представлена погода в Нан Агромете за последнюю неделю. Архивные данные за месяц целиком и за предыдущие месяцы, начиная с января 2011 года, Вы можете получить, выбрав интересующий диапазон дат из раскрывающегося списка и нажав кнопку "Ввод!".


*Определитесь, кто Вы:
робот инопланетянин человек

Внимание! Время в таблицах - всемирное. Для получения местного времени необходимо прибавить поправку, которая равна 7 ч.

Смотрите также архив погоды в соседних городах и на ближайших метеорологических станциях:

Погода в Нане (Таиланд) (11 км)
Погода в Та Ванг Па (Таиланд) (28 км)
Погода в Тун Чанг (Таиланд) (63 км)
Погода в Пхаяу (Таиланд) (94 км)
Погода в Прхрэ (Таиланд) (100 км)
Погода в Сайнябули (Лаос) (108 км)
Погода в Лампанге (Таиланд) (145 км)
Погода в Чианграе (Таиланд) (153 км)
Погода в Уттарадите (Таиланд) (155 км)
Погода в Чианграй Агромете (Таиланд) (159 км)

Пояснения к столбцам:

Ветер - указаны скорость ветра в м/с - средняя за 10 мин, порывы в срок и между сроками (в фигурных скобках) и направление, откуда дует ветер: С - северный, СВ - северо-восточный, В - восточный, ЮВ - юго-восточный, Ю - южный, ЮЗ - юго-западный, З - западный, СЗ - северо-западный.
Видимость - горизонтальная дальность видимости в метрах или километрах. При видимости от 1 до 10 км при отсутствии осадков обычно наблюдается дымка, при ухудшении видимости до 1 км и менее - туман. В сухую погоду видимость может ухудшаться дымом, пылью или мглою.
Явления - указаны атмосферные явления, наблюдавшиеся в срок или в последний час перед сроком; фигурными скобками обозначены явления, наблюдавшиеся между сроками (за 1-3 часа до срока); квадратными скобками обозначены град или гололедные отложения с указанием их диаметра в мм.
Облачность - указаны через наклонную черту общая и нижняя облачность в баллах и высота нижней границы облаков в метрах; квадратными скобками обозначены формы облаков: Ci - перистые, Cs - перисто-слоистые, Cc - перисто-кучевые, Ac - высококучевые, As - высокослоистые, Sc - слоисто-кучевые, Ns - слоисто-дождевые, Cu - кучевые, Cb - кучево-дождевые. Подробнее классификацию облаков см. в Атласе облаков (PDF).
T - Температура воздуха - температура, измеренная на высоте 2 м над землей.
Td - Температура точки росы - температура, при понижении до которой содержащийся в воздухе водяной пар достигнет насыщения.
f - Относительная влажность воздуха - влажноcть воздуха, измеренная на высоте 2 м над землей.
Te - Эффективная температура - температура, которую ощущает одетый по сезону человек в тени. Характеристика душности погоды. При расчете учитывается влияние влажности воздуха и скорости ветра на теплоощущения человека.
Tes - Эффективная температура на солнце - температура, которую ощущает человек, с поправкой на солнечный нагрев. Характеристика знойности погоды. Зависит от высоты солнца над горизонтом, облачности и скорости ветра. Ночью, в пасмурную погоду, а также при ветре 12 м/с и более поправка равна нулю.
P - Атмосферное давление - приведенное к уровню моря атмосферное давление.
Po - Атмосферное давление - измеренное на уровне метеостанции атмосферное давление.
Tmin - Минимальная температура - минимум температуры воздуха на высоте 2 м над землей.
Tmax - Максимальная температура - максимум температуры воздуха на высоте 2 м над землей.
R - Количество осадков - Количество выпавших осадков за период времени, мм. При наведении курсора мыши на число - период времени, за который выпало указанное количество осадков.
R24 - Количество осадков - Количество выпавших осадков за 24 часа, мм.
S - Снежный покров - Высота снежного покрова, см. При наведении курсора мыши на число - состояние снежного покрова и степень покрытия местности в баллах.